GHGSAT-C4 (52746 NORAD) Tracking and Keplerian Element Data

This shows tracking and keplerian element data for the satellite.

Feedback or suggestion? Click here.




ElementValue
Catalog52746
NameGHGSAT-C4
Epoch Orbit717
Epoch Day193.21137755
Epoch Year2022
RAAN307.4682
Inclination97.5123
Eccentricity0.0010989
Argument of Perigee79.2313
Mean Anonmoly11.4782
Mean Motion15.12252827
Decay Rate1.164E-05
L11 52746U 22057Q 22193.21137755 .00001164 00000+0 71006-4 0 9997
L22 52746 97.5123 307.4682 0010989 79.2313 11.4782 15.12252827 7178

Live tracking and technical data element details for GHGSAT-C4 (NORAD 52746). GHGSAT-C4 can be tracked NOW for your location showing map with azimuth and elevation plus other details from your city location.

Track the satellite on the map from your city or location and see movement details for azimuth, elevation, latitude, longitude, range, height, and movement on the map or in text.







IsCatalogInMostPopularTable: catalog: 52746, numindb: 3
Update: records affected: 1



GetName: 52746 GHGSAT-C4

Hit Count: updated at: Sun, 14 Aug 2022 01:32:39 GMT